Indianapolis, IN

4:21 AM EDT on July 28, 2017 (GMT -0400)
Indianapolis International

Weather History for KIND - September, 2013

Change the Weather History Date:

Monday, September 2, 2013

  Actual Average Record
Temperature  
Mean Temperature 76 °F 72 °F  
Max Temperature 85 °F 82 °F 100 °F (1953)
Min Temperature 66 °F 62 °F 45 °F (1885)
Degree Days  
Heating Degree Days 0 0  
Month to date heating degree days 0 0  
Since 1 July heating degree days 8 4  
Cooling Degree Days 11 7  
Month to date cooling degree days 23 15  
Year to date cooling degree days 982 936  
Growing Degree Days 26 (Base 50)    
Moisture  
Dew Point 65 °F    
Average Humidity 70    
Maximum Humidity 97    
Minimum Humidity 43    
Precipitation  
Precipitation T in 0.10 in 2.10 in (1879)
Month to date precipitation T 0.20  
Year to date precipitation 29.93 29.53  
Snow  
Snow 0.00 in 0.00 in 0.00 in ()
Month to date snowfall 0.0 0.0  
Since 1 July snowfall 0.0 0.0  
Since 1 September snowfall 0.0 0.0  
Snow Depth 0.00 in    
Sea Level Pressure  
Sea Level Pressure 29.84 in    
Wind  
Wind Speed 8 mph (NW)    
Max Wind Speed 17 mph    
Max Gust Speed 24 mph    
Visibility 7 miles    
Events Rain    
T = Trace of Precipitation, MM = Missing Value Source: NWS Daily Summary

Daily Weather History Graph

Daily Weather History Graph

Search for Another Location

Airport or City:

Trip Planner

Search our weather history database for the weather conditions in past years. The results will help you decide how hot, cold, wet, or windy it might be!

Date:

Astronomy

Sep. 02, 2013 Rise Set
Actual Time 7:14 AM EDT 8:14 PM EDT
Civil Twilight 6:46 AM EDT 8:41 PM EDT
Nautical Twilight 6:13 AM EDT 9:14 PM EDT
Astronomical Twilight 5:39 AM EDT 9:48 PM EDT
Moon 4:31 AM EDT (9/2) 6:27 PM EDT (9/2)
Length of Visible Light 13h 55m
Length of Day
12h 59m
Waning Crescent, 8% of the Moon is Illuminated
Sep 2
Waning Crescent
Sep 5
New
Sep 12
First Quarter
Sep 19
Full
Sep 26
Last Quarter

Hourly Weather History & Observations

Time (EDT) Temp. Heat Index Dew Point Humidity Pressure Visibility Wind Dir Wind Speed Gust Speed Precip Events Conditions
12:54 AM 72.0 °F - 69.1 °F 91% 29.80 in 5.0 mi NNW 5.8 mph - N/A   Clear
1:54 AM 71.1 °F - 68.0 °F 90% 29.78 in 5.0 mi SSW 6.9 mph - N/A   Clear
2:54 AM 71.1 °F - 68.0 °F 90% 29.76 in 6.0 mi SW 6.9 mph - N/A   Clear
3:54 AM 70.0 °F - 68.0 °F 93% 29.77 in 6.0 mi SSW 5.8 mph - N/A   Clear
4:43 AM 69.8 °F - 68.0 °F 94% 29.80 in 6.0 mi SW 4.6 mph - N/A   Partly Cloudy
4:54 AM 70.0 °F - 68.0 °F 93% 29.78 in 5.0 mi South 3.5 mph - N/A   Scattered Clouds
4:59 AM 69.8 °F - 68.0 °F 94% 29.80 in 5.0 mi SSW 5.8 mph - N/A   Mostly Cloudy
5:54 AM 71.1 °F - 69.1 °F 93% 29.80 in 5.0 mi WSW 3.5 mph - N/A   Overcast
6:54 AM 71.1 °F - 69.1 °F 93% 29.81 in 5.0 mi WSW 6.9 mph - N/A   Overcast
7:54 AM 71.1 °F - 68.0 °F 90% 29.82 in 4.0 mi WNW 8.1 mph - N/A   Overcast
8:54 AM 71.1 °F - 68.0 °F 90% 29.83 in 3.0 mi West 5.8 mph - N/A   Overcast
9:54 AM 71.1 °F - 68.0 °F 90% 29.85 in 3.0 mi WNW 6.9 mph - N/A   Overcast
10:54 AM 73.0 °F - 68.0 °F 84% 29.87 in 4.0 mi WNW 6.9 mph - N/A   Light Drizzle
11:14 AM 73.4 °F - 68.0 °F 83% 29.89 in 4.0 mi NW 8.1 mph - N/A   Overcast
11:54 AM 73.9 °F - 66.9 °F 79% 29.88 in 7.0 mi NW 6.9 mph - N/A   Overcast
12:54 PM 75.0 °F - 66.0 °F 73% 29.89 in 10.0 mi North 9.2 mph - N/A   Mostly Cloudy
1:44 PM 78.8 °F - 64.4 °F 61% 29.90 in 10.0 mi NNW 5.8 mph - N/A   Scattered Clouds
1:54 PM 81.0 °F 82.7 °F 64.9 °F 58% 29.87 in 10.0 mi North 8.1 mph - N/A   Scattered Clouds
2:54 PM 82.9 °F 84.0 °F 63.0 °F 51% 29.86 in 10.0 mi NNW 9.2 mph - N/A   Mostly Cloudy
3:54 PM 82.0 °F 82.4 °F 60.1 °F 47% 29.84 in 10.0 mi NW 11.5 mph - N/A   Scattered Clouds
4:54 PM 82.9 °F 82.8 °F 59.0 °F 44% 29.83 in 10.0 mi NW 13.8 mph - N/A   Scattered Clouds
5:54 PM 82.9 °F 82.6 °F 57.9 °F 42% 29.83 in 10.0 mi NW 12.7 mph 17.3 mph N/A   Scattered Clouds
6:54 PM 81.0 °F 81.0 °F 57.0 °F 44% 29.84 in 10.0 mi NNW 11.5 mph - N/A   Scattered Clouds
7:54 PM 78.1 °F - 57.0 °F 48% 29.85 in 10.0 mi North 8.1 mph - N/A   Scattered Clouds
8:54 PM 73.9 °F - 57.0 °F 55% 29.86 in 10.0 mi North 5.8 mph - N/A   Scattered Clouds
9:54 PM 73.0 °F - 57.9 °F 59% 29.88 in 10.0 mi North 8.1 mph - N/A   Clear
10:54 PM 72.0 °F - 57.9 °F 61% 29.90 in 10.0 mi NNE 11.5 mph - N/A   Partly Cloudy
11:54 PM 69.1 °F - 57.9 °F 68% 29.91 in 10.0 mi North 12.7 mph - N/A   Partly Cloudy